Flag for Germany Weather past 2 weeks in Dinslaken, North Rhine-Westphalia, Germany

49 °F

Rain. Low clouds.

Feels Like: 45 °F
Forecast: 45 / 54 °F
Wind: 12 mph from Southwest

Location: Essen

Current Time: Nov 30, 2015 at 8:31:29 PM

Latest Report: Nov 30, 2015 at 8:00 PM

Visibility: 3 mi

Pressure: 29.87 "Hg

Humidity: 98%

Dew point: 49 °F

Location of DinslakenLocation

Historic Weather in Dinslaken — Graph


Dinslaken temperature yesterday

Maximum temperature yesterday: 51 °F (at 7:00 PM)
Minimum temperature yesterday: 42 °F (at 2:00 AM)
Average temperature yesterday: 48 °F

Past Weeks' High & Low Weather Summary

High59 °F (Nov 17, 9:00 PM)100% (Nov 17, 4:00 AM)30.27 "Hg (Nov 17, 4:00 AM)
Low32 °F (Nov 22, 8:00 AM)63% (Nov 23, 2:00 PM)29.38 "Hg (Nov 21, 12:00 PM)
Average44 °F87%29.86 "Hg
* Reported Nov 15 7:00 PM — Nov 30 7:00 PM, Dinslaken, Weather by CustomWeather, © 2015

Note: Actual official high and low records may vary slightly from our data, if they occured in-between our weather recording intervals... More about our weather records


Dinslaken weather history for previous 24 hours

Time TempWeatherWind HumidityBarometerVisibility
7:00 PM
Mon, Nov 30
49 °FLight rain. Low clouds.9 mph97%29.87 "Hg3 mi
6:00 PM49 °FLight rain. Low clouds.10 mph95%29.88 "Hg4 mi
5:00 PM49 °FLight rain. Low clouds.8 mph97%29.88 "Hg4 mi
4:00 PM49 °FLight rain. Low clouds.9 mph95%29.91 "Hg4 mi
3:00 PM49 °FLight rain. Low clouds.9 mph99%29.93 "Hg3 mi
2:00 PM47 °FRain. Low clouds.8 mph100%29.97 "Hg2 mi
1:00 PM44 °FRain. Low clouds.3 mph99%30.01 "Hg2 mi
12:00 PM44 °FLight rain. Overcast.3 mph93%30.07 "Hg5 mi
11:00 AM45 °FLight rain. Overcast.5 mph76%30.08 "Hg19 mi
10:00 AM44 °FOvercast.3 mph76%30.10 "Hg22 mi
4:00 AM47 °FOvercast.5 mph82%29.96 "Hg22 mi
3:00 AM47 °FOvercast.8 mph86%29.94 "Hg19 mi
1:00 AM48 °FOvercast.7 mph94%29.87 "Hg18 mi
10:00 PM
Sun, Nov 29
50 °FRain. Low clouds.13 mph96%29.75 "Hg2 mi
9:00 PM50 °FLight rain. Low clouds.10 mph93%29.75 "Hg7 mi
8:00 PM50 °FLight rain. Low clouds.12 mph93%29.76 "Hg11 mi
Weather by CustomWeather, © 2015

See weather overviewHow to use our weather pages